When you browse on this site, cookies collect data to enhance your experience and personalize the content and advertising you see.
Visit our Privacy Policy to learn more. By continuing to use the site, you agree to this use of cookies and data.
  • în România
  • Lista ţărilor
  • Pe 7 zile
  • Temperatura apei
  • Hartă satelitară
  • Meteo pe hartă
  • Widget-uri
  • user-avatar
    Intrare

    Meteo pe oră la Albuquerque

    Astăzi, 10 Decembrie, Luni

    Timp Temperatura Precipitaţii Vânt Presiune Umiditate
    00:00 +1°C° 0 mm 2 m/s 638 mmHg 59%
    01:00 +1°C° 0 mm 2 m/s 638 mmHg 58%
    02:00 +2°C° 0 mm 1 m/s 638 mmHg 58%
    03:00 +2°C° 0 mm 1 m/s 638 mmHg 58%
    04:00 +1°C° 0 mm 1 m/s 638 mmHg 57%
    05:00 +1°C° 0 mm 1 m/s 638 mmHg 57%
    06:00 +2°C° 0 mm 1 m/s 638 mmHg 54%
    07:00 +2°C° 0 mm 1 m/s 638 mmHg 52%
    08:00 +3°C° 0 mm 1 m/s 638 mmHg 49%
    09:00 +5°C° 0 mm 1 m/s 638 mmHg 42%
    10:00 +7°C° 0 mm 1 m/s 638 mmHg 35%
    11:00 +8°C° 0 mm 2 m/s 638 mmHg 27%
    12:00 +8°C° 0 mm 2 m/s 638 mmHg 26%
    13:00 +9°C° 0 mm 2 m/s 638 mmHg 24%
    14:00 +10°C° 0 mm 2 m/s 637 mmHg 22%
    15:00 +8°C° 0 mm 2 m/s 636 mmHg 26%
    16:00 +7°C° 0 mm 2 m/s 636 mmHg 30%
    17:00 +6°C° 0 mm 1 m/s 635 mmHg 34%
    18:00 +6°C° 0 mm 1 m/s 635 mmHg 34%
    19:00 +5°C° 0 mm 1 m/s 635 mmHg 34%
    20:00 +5°C° 0 mm 1 m/s 635 mmHg 34%
    21:00 +5°C° 0 mm 1 m/s 635 mmHg 34%
    22:00 +5°C° 0 mm 1 m/s 635 mmHg 35%
    23:00 +5°C° 0 mm 1 m/s 635 mmHg 35%

    Mâine, 11 Decembrie, Marţi

    Timp Temperatura Precipitaţii Vânt Presiune Umiditate
    00:00 +4°C° 0 mm 1 m/s 634 mmHg 37%
    01:00 +4°C° 0 mm 1 m/s 634 mmHg 38%
    02:00 +4°C° 0 mm 1 m/s 634 mmHg 40%
    03:00 +4°C° 0 mm 1 m/s 634 mmHg 42%
    04:00 +4°C° 0 mm 1 m/s 633 mmHg 44%
    05:00 +4°C° 0 mm 1 m/s 633 mmHg 47%
    06:00 +4°C° 0 mm 1 m/s 633 mmHg 47%
    07:00 +5°C° 0 mm 1 m/s 634 mmHg 47%
    08:00 +5°C° 0 mm 1 m/s 634 mmHg 47%
    09:00 +7°C° 0 mm 1 m/s 634 mmHg 41%
    10:00 +8°C° 0 mm 2 m/s 635 mmHg 35%
    11:00 +10°C° 0 mm 2 m/s 635 mmHg 29%
    12:00 +11°C° 0 mm 3 m/s 635 mmHg 28%
    13:00 +12°C° 0 mm 3 m/s 634 mmHg 28%
    14:00 +13°C° 0 mm 4 m/s 634 mmHg 27%
    15:00 +12°C° 0 mm 3 m/s 634 mmHg 34%
    16:00 +10°C° 0 mm 3 m/s 634 mmHg 41%
    17:00 +9°C° 0 mm 2 m/s 634 mmHg 47%
    18:00 +8°C° 0 mm 2 m/s 634 mmHg 49%
    19:00 +8°C° 0 mm 2 m/s 634 mmHg 51%
    20:00 +7°C° 0 mm 2 m/s 634 mmHg 53%
    21:00 +7°C° 0 mm 2 m/s 634 mmHg 54%
    22:00 +6°C° 0 mm 2 m/s 634 mmHg 56%
    23:00 +5°C° 0 mm 2 m/s 634 mmHg 57%

    Poimâine, 12 Decembrie, Miercuri

    Timp Temperatura Precipitaţii Vânt Presiune Umiditate
    00:00 +5°C° 0 mm 2 m/s 634 mmHg 57%
    01:00 +4°C° 0 mm 2 m/s 633 mmHg 57%
    02:00 +4°C° 0 mm 2 m/s 633 mmHg 58%
    03:00 +3°C° 0 mm 2 m/s 633 mmHg 58%
    04:00 +4°C° 0 mm 1 m/s 632 mmHg 59%
    05:00 +4°C° 0 mm 1 m/s 632 mmHg 59%
    06:00 +4°C° 0 mm 1 m/s 632 mmHg 57%
    07:00 +4°C° 0 mm 1 m/s 633 mmHg 56%
    08:00 +5°C° 0 mm 1 m/s 633 mmHg 54%
    09:00 +6°C° 0 mm 2 m/s 633 mmHg 47%
    10:00 +8°C° 0 mm 3 m/s 633 mmHg 40%
    11:00 +10°C° 0 mm 4 m/s 634 mmHg 32%
    12:00 +10°C° 0 mm 6 m/s 633 mmHg 29%
    13:00 +11°C° 0 mm 8 m/s 633 mmHg 27%
    14:00 +12°C° 0 mm 9 m/s 633 mmHg 24%
    15:00 +11°C° 0 mm 9 m/s 632 mmHg 26%
    16:00 +8°C° 0 mm 9 m/s 632 mmHg 29%
    17:00 +7°C° 0 mm 8 m/s 632 mmHg 31%
    18:00 +6°C° 0 mm 9 m/s 632 mmHg 32%
    19:00 +3°C° 0 mm 10 m/s 633 mmHg 33%
    20:00 +1°C° 0 mm 11 m/s 633 mmHg 35%
    21:00 -1°C° 0 mm 11 m/s 634 mmHg 33%
    22:00 -2°C° 0 mm 12 m/s 634 mmHg 32%
    23:00 -3°C° 0 mm 12 m/s 635 mmHg 31%

    13 Decembrie, Joi

    Timp Temperatura Precipitaţii Vânt Presiune Umiditate
    00:00 -3°C° 0 mm 11 m/s 635 mmHg 32%
    01:00 -4°C° 0 mm 9 m/s 636 mmHg 32%
    02:00 -4°C° 0 mm 8 m/s 636 mmHg 33%
    03:00 -3°C° 0 mm 7 m/s 637 mmHg 33%
    04:00 -4°C° 0 mm 6 m/s 637 mmHg 33%
    05:00 -4°C° 0 mm 6 m/s 637 mmHg 34%
    06:00 -4°C° 0 mm 5 m/s 638 mmHg 33%
    07:00 -4°C° 0 mm 5 m/s 638 mmHg 32%
    08:00 -2°C° 0 mm 5 m/s 639 mmHg 32%
    09:00 -1°C° 0 mm 5 m/s 639 mmHg 27%
    10:00 +1°C° 0 mm 5 m/s 639 mmHg 23%
    11:00 +3°C° 0 mm 5 m/s 639 mmHg 19%
    12:00 +5°C° 0 mm 5 m/s 638 mmHg 18%
    13:00 +6°C° 0 mm 5 m/s 638 mmHg 17%
    14:00 +6°C° 0 mm 5 m/s 637 mmHg 16%
    15:00 +5°C° 0 mm 4 m/s 637 mmHg 18%
    16:00 +4°C° 0 mm 4 m/s 637 mmHg 21%
    17:00 +3°C° 0 mm 3 m/s 637 mmHg 23%
    18:00 +2°C° 0 mm 3 m/s 637 mmHg 25%
    19:00 +1°C° 0 mm 3 m/s 637 mmHg 28%
    20:00 +2°C° 0 mm 2 m/s 637 mmHg 30%
    21:00 +1°C° 0 mm 2 m/s 637 mmHg 30%
    22:00 +1°C° 0 mm 2 m/s 637 mmHg 30%
    23:00 +1°C° 0 mm 2 m/s 637 mmHg 31%

    14 Decembrie, Vineri

    Timp Temperatura Precipitaţii Vânt Presiune Umiditate
    00:00 +1°C° 0 mm 2 m/s 637 mmHg 30%
    01:00 +1°C° 0 mm 2 m/s 636 mmHg 30%
    02:00 +2°C° 0 mm 1 m/s 636 mmHg 30%
    03:00 +2°C° 0 mm 1 m/s 636 mmHg 30%
    04:00 +2°C° 0 mm 1 m/s 636 mmHg 30%
    05:00 +2°C° 0 mm 1 m/s 636 mmHg 30%
    06:00 +2°C° 0 mm 1 m/s 636 mmHg 30%
    07:00 +3°C° 0 mm 1 m/s 636 mmHg 30%
    08:00 +2°C° 0 mm 0 m/s 636 mmHg 30%
    09:00 +5°C° 0 mm 1 m/s 636 mmHg 26%
    10:00 +8°C° 0 mm 1 m/s 636 mmHg 23%
    11:00 +9°C° 0 mm 2 m/s 636 mmHg 19%
    12:00 +9°C° 0 mm 2 m/s 636 mmHg 19%
    13:00 +10°C° 0 mm 2 m/s 635 mmHg 19%
    14:00 +10°C° 0 mm 2 m/s 634 mmHg 19%
    15:00 +9°C° 0 mm 2 m/s 633 mmHg 22%
    16:00 +8°C° 0 mm 1 m/s 633 mmHg 26%
    17:00 +7°C° 0 mm 1 m/s 632 mmHg 29%
    18:00 +6°C° 0 mm 1 m/s 632 mmHg 29%
    19:00 +6°C° 0 mm 1 m/s 632 mmHg 30%
    20:00 +5°C° 0 mm 1 m/s 632 mmHg 30%
    21:00 +5°C° 0 mm 1 m/s 632 mmHg 30%
    22:00 +5°C° 0 mm 1 m/s 631 mmHg 29%
    23:00 +5°C° 0 mm 1 m/s 631 mmHg 29%

    15 Decembrie, Sâmbătă

    Timp Temperatura Precipitaţii Vânt Presiune Umiditate
    00:00 +5°C° 0 mm 1 m/s 631 mmHg 29%
    01:00 +5°C° 0 mm 1 m/s 631 mmHg 29%
    02:00 +5°C° 0 mm 1 m/s 630 mmHg 29%
    03:00 +5°C° 0 mm 1 m/s 630 mmHg 29%
    04:00 +5°C° 0 mm 1 m/s 630 mmHg 29%
    05:00 +6°C° 0 mm 1 m/s 630 mmHg 28%
    06:00 +6°C° 0.1 mm 1 m/s 631 mmHg 31%
    07:00 +5°C° 0.1 mm 2 m/s 631 mmHg 33%
    08:00 +5°C° 0.1 mm 2 m/s 631 mmHg 35%
    09:00 +5°C° 0 mm 3 m/s 631 mmHg 36%
    10:00 +8°C° 0 mm 3 m/s 632 mmHg 37%
    11:00 +9°C° 0 mm 3 m/s 632 mmHg 38%
    12:00 +10°C° 0 mm 4 m/s 632 mmHg 38%
    13:00 +10°C° 0 mm 5 m/s 631 mmHg 37%
    14:00 +12°C° 0 mm 5 m/s 631 mmHg 37%
    15:00 +10°C° 0 mm 5 m/s 632 mmHg 37%
    16:00 +9°C° 0 mm 5 m/s 632 mmHg 36%
    17:00 +8°C° 0 mm 5 m/s 632 mmHg 35%
    18:00 +7°C° 0 mm 5 m/s 633 mmHg 36%
    19:00 +6°C° 0 mm 4 m/s 633 mmHg 38%
    20:00 +5°C° 0 mm 4 m/s 634 mmHg 39%
    21:00 +4°C° 0 mm 4 m/s 634 mmHg 40%
    22:00 +4°C° 0 mm 4 m/s 634 mmHg 42%
    23:00 +3°C° 0 mm 3 m/s 635 mmHg 43%
    Arată mai mult